NPT18 EGPH-EGNS

Flight info

Callsign NPT18
Flight time 0h 34m
Altitude 19000
Route TLA N864 DCS DCT IOM
Aircraft R722/M-SDFGRWY/S

Departure

Time 2026-04-23 17:01
Airport Edinburgh Airport (EGPH)

Arrival

Time 2026-04-23 17:36
Airport Isle of Man Airport (EGNS)
Time Latitude Longitude Altitude Speed Heading
2026-04-23 16:28 55.95197 -3.35530 119 ft 0 kts 28°
2026-04-23 16:48 55.95178 -3.35544 115 ft 3 kts 10°
2026-04-23 16:48 55.95157 -3.35540 115 ft 3 kts 335°
2026-04-23 16:48 55.95141 -3.35515 118 ft 3 kts 303°
2026-04-23 16:48 55.95137 -3.35502 116 ft 0 kts 298°
2026-04-23 16:52 55.95144 -3.35524 116 ft 5 kts 298°
2026-04-23 16:52 55.95165 -3.35593 116 ft 8 kts 298°
2026-04-23 16:53 55.95194 -3.35690 119 ft 10 kts 297°
2026-04-23 16:53 55.95232 -3.35798 119 ft 11 kts 318°
2026-04-23 16:53 55.95263 -3.35899 119 ft 11 kts 245°
2026-04-23 16:53 55.95221 -3.36028 118 ft 13 kts 239°
2026-04-23 16:54 55.95170 -3.36180 119 ft 15 kts 239°
2026-04-23 16:54 55.95110 -3.36354 119 ft 17 kts 239°
2026-04-23 16:54 55.95068 -3.36481 119 ft 19 kts 239°
2026-04-23 16:54 55.94997 -3.36688 118 ft 20 kts 238°
2026-04-23 16:55 55.94920 -3.36914 118 ft 22 kts 239°
2026-04-23 16:55 55.94809 -3.37240 117 ft 24 kts 238°
2026-04-23 16:55 55.94750 -3.37416 119 ft 25 kts 239°
2026-04-23 16:55 55.94660 -3.37682 118 ft 23 kts 239°
2026-04-23 16:56 55.94581 -3.37913 119 ft 23 kts 239°
2026-04-23 16:56 55.94497 -3.38162 118 ft 24 kts 239°
2026-04-23 16:56 55.94408 -3.38424 118 ft 25 kts 239°
2026-04-23 16:56 55.94325 -3.38668 119 ft 17 kts 238°
2026-04-23 16:57 55.94280 -3.38807 118 ft 10 kts 252°
2026-04-23 16:57 55.94304 -3.38884 118 ft 4 kts 329°
2026-04-23 16:57 55.94310 -3.38890 119 ft 0 kts 329°
2026-04-23 17:00 55.94332 -3.38914 119 ft 8 kts 329°
2026-04-23 17:00 55.94397 -3.38966 117 ft 12 kts
2026-04-23 17:00 55.94437 -3.38908 117 ft 0 kts 59°
2026-04-23 17:00 55.94452 -3.38864 118 ft 26 kts 59°
2026-04-23 17:01 55.94693 -3.38154 117 ft 103 kts 58°
2026-04-23 17:01 55.95167 -3.36759 139 ft 154 kts 59°
2026-04-23 17:01 55.95760 -3.35020 587 ft 167 kts 59°
2026-04-23 17:01 55.96493 -3.33443 1376 ft 167 kts 44°
2026-04-23 17:02 55.97377 -3.31996 1919 ft 178 kts 44°
2026-04-23 17:02 55.98330 -3.30450 2455 ft 191 kts 42°
2026-04-23 17:02 55.99393 -3.28826 2784 ft 221 kts 41°
2026-04-23 17:02 56.00612 -3.26904 3311 ft 233 kts 43°
2026-04-23 17:03 56.01809 -3.24955 4089 ft 235 kts 43°
2026-04-23 17:03 56.03053 -3.22941 4600 ft 243 kts 42°
2026-04-23 17:03 56.04297 -3.20907 5280 ft 243 kts 45°
2026-04-23 17:03 56.05231 -3.18396 5823 ft 245 kts 70°
2026-04-23 17:04 56.05577 -3.15450 6399 ft 245 kts 90°
2026-04-23 17:04 56.05424 -3.12415 6985 ft 245 kts 107°
2026-04-23 17:04 56.04710 -3.09673 7531 ft 244 kts 128°
2026-04-23 17:04 56.03539 -3.07484 8065 ft 244 kts 142°
2026-04-23 17:05 56.02182 -3.05655 8614 ft 244 kts 147°
2026-04-23 17:05 56.00808 -3.03841 9163 ft 247 kts 144°
2026-04-23 17:05 55.99468 -3.01961 9667 ft 249 kts 143°
2026-04-23 17:05 55.98070 -3.00036 10014 ft 258 kts 148°
2026-04-23 17:06 55.96359 -2.98988 10338 ft 268 kts 179°
2026-04-23 17:06 55.94500 -2.99507 10683 ft 281 kts 200°
2026-04-23 17:06 55.92681 -3.00993 11033 ft 294 kts 207°
2026-04-23 17:06 55.90836 -3.02752 11374 ft 305 kts 208°
2026-04-23 17:07 55.88903 -3.04468 11698 ft 315 kts 205°
2026-04-23 17:07 55.86856 -3.06032 12016 ft 325 kts 203°
2026-04-23 17:07 55.84756 -3.07642 12454 ft 329 kts 204°
2026-04-23 17:07 55.82675 -3.09336 12876 ft 334 kts 205°
2026-04-23 17:08 55.80551 -3.11067 13428 ft 335 kts 205°
2026-04-23 17:08 55.78409 -3.12760 13950 ft 338 kts 204°
2026-04-23 17:08 55.76242 -3.14468 14373 ft 342 kts 205°
2026-04-23 17:08 55.74055 -3.16215 14766 ft 346 kts 205°
2026-04-23 17:09 55.71882 -3.17950 15269 ft 347 kts 205°
2026-04-23 17:09 55.69667 -3.19704 15726 ft 348 kts 204°
2026-04-23 17:09 55.67446 -3.21462 15987 ft 351 kts 204°
2026-04-23 17:09 55.65205 -3.23238 16133 ft 351 kts 204°
2026-04-23 17:10 55.62954 -3.25016 16222 ft 355 kts 204°
2026-04-23 17:10 55.60734 -3.26766 16492 ft 353 kts 204°
2026-04-23 17:10 55.58483 -3.28542 16563 ft 356 kts 204°
2026-04-23 17:10 55.56212 -3.30333 16708 ft 357 kts 204°
2026-04-23 17:11 55.53937 -3.32120 16899 ft 357 kts 204°
2026-04-23 17:11 55.51660 -3.33895 17057 ft 358 kts 203°
2026-04-23 17:11 55.49245 -3.35066 17434 ft 360 kts 187°
2026-04-23 17:12 55.44649 -3.35334 18599 ft 361 kts 177°
2026-04-23 17:12 55.42116 -3.35120 18990 ft 365 kts 178°
2026-04-23 17:12 55.39596 -3.35054 19450 ft 367 kts 180°
2026-04-23 17:12 55.37015 -3.35097 19834 ft 372 kts 180°
2026-04-23 17:13 55.34414 -3.35077 20294 ft 374 kts 179°
2026-04-23 17:13 55.31772 -3.34995 20421 ft 388 kts 179°
2026-04-23 17:13 55.29012 -3.34934 20435 ft 404 kts 179°
2026-04-23 17:13 55.26176 -3.34907 20444 ft 419 kts 179°
2026-04-23 17:14 55.23191 -3.34873 20438 ft 432 kts 179°
2026-04-23 17:14 55.20135 -3.34815 20436 ft 444 kts 179°
2026-04-23 17:14 55.17039 -3.34756 20439 ft 454 kts 179°
2026-04-23 17:14 55.13847 -3.34713 20434 ft 463 kts 179°
2026-04-23 17:15 55.10601 -3.34665 20435 ft 468 kts 179°
2026-04-23 17:15 55.07379 -3.34612 20441 ft 455 kts 179°
2026-04-23 17:15 55.04249 -3.34562 20428 ft 444 kts 179°
2026-04-23 17:15 55.01189 -3.34515 20418 ft 436 kts 179°
2026-04-23 17:16 54.98173 -3.34469 20423 ft 430 kts 179°
2026-04-23 17:16 54.95193 -3.34421 20424 ft 424 kts 179°
2026-04-23 17:16 54.92291 -3.34376 20421 ft 420 kts 179°
2026-04-23 17:16 54.89381 -3.34330 20414 ft 416 kts 179°
2026-04-23 17:17 54.86497 -3.34285 20409 ft 412 kts 179°
2026-04-23 17:17 54.83638 -3.34241 20417 ft 409 kts 179°
2026-04-23 17:17 54.81754 -3.34212 20410 ft 408 kts 179°
2026-04-23 17:17 54.77973 -3.34174 20411 ft 404 kts 181°
2026-04-23 17:18 54.72611 -3.36553 20419 ft 401 kts 207°
2026-04-23 17:18 54.70282 -3.39198 20421 ft 401 kts 219°
2026-04-23 17:18 54.68311 -3.42604 20420 ft 400 kts 228°
2026-04-23 17:19 54.67123 -3.45057 20430 ft 400 kts 231°
2026-04-23 17:19 54.65472 -3.48942 20431 ft 400 kts 234°
2026-04-23 17:19 54.63837 -3.52830 20432 ft 400 kts 232°
2026-04-23 17:19 54.61525 -3.57807 20304 ft 402 kts 230°
2026-04-23 17:20 54.60333 -3.60353 20068 ft 404 kts 231°
2026-04-23 17:20 54.56996 -3.67851 19181 ft 384 kts 232°
2026-04-23 17:21 54.53758 -3.74929 18202 ft 365 kts 231°
2026-04-23 17:21 54.52225 -3.78297 17701 ft 357 kts 231°
2026-04-23 17:21 54.49230 -3.84888 16700 ft 341 kts 231°
2026-04-23 17:22 54.47778 -3.88069 16219 ft 334 kts 231°
2026-04-23 17:22 54.44979 -3.94208 15278 ft 322 kts 231°
2026-04-23 17:23 54.42251 -4.00187 14385 ft 315 kts 231°
2026-04-23 17:23 54.40904 -4.03130 13925 ft 312 kts 231°
2026-04-23 17:23 54.38235 -4.08954 12944 ft 308 kts 231°
2026-04-23 17:24 54.36909 -4.11845 12457 ft 307 kts 231°
2026-04-23 17:24 54.35604 -4.14692 11990 ft 305 kts 231°
2026-04-23 17:24 54.32988 -4.20395 11051 ft 303 kts 231°
2026-04-23 17:25 54.30405 -4.26025 10142 ft 301 kts 231°
2026-04-23 17:25 54.29116 -4.28838 9643 ft 300 kts 231°
2026-04-23 17:26 54.26557 -4.34452 8717 ft 298 kts 231°
2026-04-23 17:26 54.24029 -4.40068 7819 ft 297 kts 231°
2026-04-23 17:27 54.21534 -4.45671 6959 ft 297 kts 231°
2026-04-23 17:27 54.20288 -4.48492 6531 ft 296 kts 231°
2026-04-23 17:27 54.19086 -4.51222 6090 ft 277 kts 231°
2026-04-23 17:27 54.17965 -4.53784 5645 ft 261 kts 231°
2026-04-23 17:28 54.17034 -4.56370 5191 ft 251 kts 240°
2026-04-23 17:28 54.16261 -4.58942 4774 ft 241 kts 241°
2026-04-23 17:28 54.15503 -4.61421 4469 ft 230 kts 240°
2026-04-23 17:28 54.14801 -4.63743 4236 ft 209 kts 239°
2026-04-23 17:29 54.14172 -4.65890 3977 ft 196 kts 242°
2026-04-23 17:29 54.13577 -4.67898 3781 ft 182 kts 239°
2026-04-23 17:29 54.12750 -4.71887 3480 ft 189 kts 249°
2026-04-23 17:30 54.12368 -4.74089 3384 ft 195 kts 250°
2026-04-23 17:30 54.11584 -4.78566 3163 ft 200 kts 249°
2026-04-23 17:30 54.11210 -4.80857 3008 ft 201 kts 252°
2026-04-23 17:31 54.10802 -4.83165 2847 ft 204 kts 248°
2026-04-23 17:31 54.10364 -4.85480 2672 ft 205 kts 242°
2026-04-23 17:31 54.09364 -4.87123 2456 ft 206 kts 197°
2026-04-23 17:31 54.07915 -4.87381 2308 ft 216 kts 170°
2026-04-23 17:32 54.06589 -4.86180 2158 ft 222 kts 136°
2026-04-23 17:32 54.05898 -4.83887 1996 ft 228 kts 96°
2026-04-23 17:32 54.06231 -4.81420 1993 ft 198 kts 68°
2026-04-23 17:32 54.06719 -4.79446 1964 ft 165 kts 78°
2026-04-23 17:33 54.06926 -4.77671 1967 ft 144 kts 87°
2026-04-23 17:33 54.07077 -4.75929 1776 ft 153 kts 85°
2026-04-23 17:33 54.07248 -4.74134 1542 ft 153 kts 84°
2026-04-23 17:33 54.07382 -4.72453 1317 ft 134 kts 85°
2026-04-23 17:34 54.07506 -4.70961 1059 ft 123 kts 85°
2026-04-23 17:34 54.07611 -4.69567 800 ft 116 kts 85°
2026-04-23 17:34 54.07811 -4.66667 508 ft 125 kts 81°
2026-04-23 17:35 54.07967 -4.65260 280 ft 117 kts 77°
2026-04-23 17:35 54.08306 -4.62566 43 ft 101 kts 78°
2026-04-23 17:35 54.08410 -4.61732 41 ft 57 kts 78°
2026-04-23 17:36 54.08470 -4.61395 40 ft 9 kts 358°
2026-04-23 17:36 54.08501 -4.61433 40 ft 8 kts 324°
2026-04-23 17:36 54.08535 -4.61538 41 ft 12 kts 275°
2026-04-23 17:36 54.08543 -4.61689 41 ft 14 kts 276°
2026-04-23 17:37 54.08553 -4.61864 41 ft 16 kts 268°
2026-04-23 17:37 54.08531 -4.62059 41 ft 18 kts 258°
2026-04-23 17:37 54.08475 -4.62513 38 ft 22 kts 258°
2026-04-23 17:38 54.08441 -4.62779 42 ft 24 kts 257°
2026-04-23 17:38 54.08420 -4.62942 38 ft 4 kts 257°
2026-04-23 17:38 54.08420 -4.62943 41 ft 0 kts 257°
2026-04-23 17:39 54.08414 -4.62989 41 ft 13 kts 257°
2026-04-23 17:39 54.08398 -4.63170 41 ft 16 kts 289°
2026-04-23 17:39 54.08443 -4.63321 39 ft 11 kts 295°
2026-04-23 17:39 54.08489 -4.63341 41 ft 8 kts 28°
2026-04-23 17:40 54.08522 -4.63338 40 ft 4 kts 330°
2026-04-23 17:40 54.08528 -4.63365 40 ft 2 kts 259°
2026-04-23 17:40 54.08523 -4.63385 40 ft 2 kts 235°
2026-04-23 17:40 54.08515 -4.63400 40 ft 1 kts 227°
2026-04-23 17:41 54.08515 -4.63401 40 ft 0 kts 226°